Weather History for Pascagoula, MS

Change the Weather History Date:

Tuesday, November 12, 2013

  Actual Average Record
Temperature  
Mean Temperature 58 °F -  
Max Temperature 73 °F 69 °F 84 °F (1955)
Min Temperature 42 °F 49 °F 29 °F (1987)
Degree Days  
Heating Degree Days 6    
Growing Degree Days 8 (Base 50)    
Moisture  
Dew Point 44 °F    
Average Humidity 70    
Maximum Humidity 100    
Minimum Humidity 42    
Precipitation  
Precipitation 0.00 in - - ()
Sea Level Pressure  
Sea Level Pressure 30.27 in    
Wind  
Wind Speed 7 mph (North)    
Max Wind Speed 22 mph    
Max Gust Speed 31 mph    
Visibility 9 miles    
Events      
Averages and records for this station are not official NWS values.
T = Trace of Precipitation, MM = Missing Value Source: NWS Daily Summary

Daily Weather History Graph

Daily Weather History Graph

Search for Another Location

Airport:

Trip Planner

Search our weather history database for the weather conditions in past years. The results will help you decide how hot, cold, wet, or windy it might be!

Date:

Astronomy

Nov. 12, 2013 Rise Set
Actual Time 6:17 AM CST 4:58 PM CST
Civil Twilight 5:52 AM CST 5:23 PM CST
Nautical Twilight 5:23 AM CST 5:52 PM CST
Astronomical Twilight 4:54 AM CST 6:21 PM CST
Moon 1:54 PM CST (11/12) 1:27 AM CST (11/12)
Length of Visible Light 11h 31m
Length of Day
10h 40m
Waxing Gibbous, 76% of the Moon is Illuminated
Nov 12
Waxing Gibbous
Nov 17
Full
Nov 25
Last Quarter
Dec 2
New
Dec 9
First Quarter

Hourly Weather History & Observations

Time (CST) Temp. Windchill Dew Point Humidity Pressure Visibility Wind Dir Wind Speed Gust Speed Precip Events Conditions
12:53 AM 46.9 °F - 46.0 °F 97% 30.19 in 5.0 mi Calm Calm - N/A   Clear
1:53 AM 46.9 °F - 46.0 °F 97% 30.18 in 8.0 mi Calm Calm - N/A   Clear
2:21 AM 46.4 °F - 44.6 °F 93% 30.18 in 1.8 mi Calm Calm - N/A   Clear
2:32 AM 46.4 °F 45.2 °F 44.6 °F 93% 30.18 in 3.0 mi North 3.5 mph - N/A   Clear
2:53 AM 46.9 °F - 46.9 °F 100% 30.18 in 6.0 mi Calm Calm - N/A   Clear
3:53 AM 50.0 °F - 48.0 °F 93% 30.19 in 10.0 mi Calm Calm - N/A   Clear
4:53 AM 46.9 °F - 46.0 °F 97% 30.20 in 10.0 mi Calm Calm - N/A   Clear
5:53 AM 50.0 °F - 48.0 °F 93% 30.21 in 10.0 mi NNW 3.5 mph - N/A   Clear
6:53 AM 51.1 °F - 48.9 °F 92% 30.23 in 10.0 mi NNW 3.5 mph - N/A   Clear
7:53 AM 55.9 °F - 51.1 °F 84% 30.25 in 10.0 mi North 3.5 mph - N/A   Clear
8:53 AM 63.0 °F - 52.0 °F 67% 30.25 in 10.0 mi North 8.1 mph - N/A   Clear
9:53 AM 68.0 °F - 51.1 °F 55% 30.25 in 10.0 mi North 11.5 mph - N/A   Clear
10:53 AM 71.1 °F - 48.0 °F 44% 30.24 in 10.0 mi North 16.1 mph 24.2 mph N/A   Clear
11:53 AM 73.0 °F - 48.9 °F 42% 30.21 in 10.0 mi NNE 13.8 mph - N/A   Clear
12:53 PM 73.0 °F - 48.9 °F 42% 30.20 in 10.0 mi NNE 11.5 mph - N/A   Clear
1:53 PM 72.0 °F - 48.9 °F 44% 30.20 in 10.0 mi North 16.1 mph 26.5 mph N/A   Clear
2:53 PM 70.0 °F - 50.0 °F 49% 30.22 in 10.0 mi North 19.6 mph 25.3 mph N/A   Partly Cloudy
3:53 PM 63.0 °F - 48.9 °F 60% 30.25 in 10.0 mi North 21.9 mph 31.1 mph N/A   Clear
4:53 PM 57.0 °F - 46.0 °F 67% 30.28 in 10.0 mi North 18.4 mph 25.3 mph N/A   Clear
5:53 PM 54.0 °F - 43.0 °F 66% 30.32 in 10.0 mi North 17.3 mph 25.3 mph N/A   Clear
6:53 PM 50.0 °F - 41.0 °F 71% 30.36 in 10.0 mi North 13.8 mph 25.3 mph N/A   Partly Cloudy
7:53 PM 48.9 °F - 39.0 °F 69% 30.40 in 10.0 mi North 18.4 mph 24.2 mph N/A   Scattered Clouds
8:53 PM 46.9 °F - 35.1 °F 63% 30.43 in 10.0 mi North 21.9 mph 29.9 mph N/A   Clear
9:53 PM 45.0 °F 38.5 °F 28.9 °F 53% 30.44 in 10.0 mi NNE 13.8 mph 26.5 mph N/A   Clear
10:53 PM 44.1 °F 36.5 °F 27.0 °F 51% 30.44 in 10.0 mi North 17.3 mph 27.6 mph N/A   Clear
11:53 PM 42.1 °F 34.5 °F 24.1 °F 49% 30.44 in 10.0 mi North 15.0 mph 25.3 mph N/A   Clear